Weather Roundup
Issued by NWS

Home | Current Version | Previous Version | Graphics & Text | Print | Product List | Glossary Off
Versions: 1 2 3 4 5 6 7 8 9 10 11 12 13 14 15 16 17 18 19 20 21 22 23 24 25 26 27 28 29 30 31 32 33 34 35 36 37 38 39 40 41 42 43 44 45 46 47 48 49 50

000
NZUS93 KARX 250459
HRRWXR

CURRENT HOURLY OBSERVATIONS ACROSS
MUCH OF THE UPPER MISSISSIPPI VALLEY
NATIONAL WEATHER SERVICE LA CROSSE WI
1200 AM CDT FRI JUL 25 2014


...SOUTHEAST MINNESOTA...


CITY           SKY/WX    TMP DP  RH WIND       PRES   REMARKS
ROCHESTER      CLEAR     63  58  83 SE6       30.01F
ROCHESTER/MAYO FAIR      67  57  70 SE7       30.00F
WINONA         PTCLDY    66  63  88 CALM      29.99S
AUSTIN         MOCLDY    63  59  88 E5        29.98F
ALBERT LEA     CLOUDY    68  61  77 SE12      29.97F
DODGE CENTER   PTCLDY    61  57  88 SE6       29.99F
PRESTON        CLEAR     64  62  94 SE3       30.03S
OWATONNA       MOCLDY    66  57  72 E7        29.96F
FARIBAULT      PTCLDY    68  57  68 E5        29.96F
$$

...ELSEWHERE IN MINNESOTA...


CITY           SKY/WX    TMP DP  RH WIND       PRES   REMARKS
MINNEAPOLIS    MOCLDY    71  58  63 S9        29.93F
INTNL FALLS    CLEAR     57  56  96 CALM      29.88R
DULUTH         MOCLDY    65  56  72 SE6       29.91S
RED WING       PTCLDY    72  59  64 SW6       29.96S
REDWOOD FALLS  CLOUDY    66  61  84 SE14      29.86F
MANKATO        CLOUDY    66  57  72 SE10      29.93F
WORTHINGTON    MOCLDY    64  61  88 SE7       29.89F
FAIRMONT       CLOUDY    63  57  82 E12       29.92F
$$

...SOUTHWEST WISCONSIN...


CITY           SKY/WX    TMP DP  RH WIND       PRES   REMARKS
LA CROSSE      CLEAR     69  61  75 S5        30.00R
PRAIRIE DU CHI CLEAR     65  58  78 E5        30.01R
BOSCOBEL       CLEAR     64  59  83 SW3       30.03R
LONE ROCK      NOT AVBL
PLATTEVILLE    CLEAR     63  58  82 S5        30.04R
FORT MC COY    CLEAR     58  56  91 CALM      30.02R
VIROQUA        FAIR      63  59  87 S5        30.03R
WIS DELLS      CLEAR     63  56  76 S6        30.01S
$$

...ELSEWHERE IN WISCONSIN...


CITY           SKY/WX    TMP DP  RH WIND       PRES   REMARKS
MILWAUKEE      PTCLDY    61  43  51 S3        30.05S
MADISON        CLEAR     66  56  70 E7        30.02S
GREEN BAY      CLOUDY    63  46  54 S6        30.03S
EAU CLAIRE     PTCLDY    67  59  75 S6        29.97S
BLACK RVR FLS  FAIR      57  57 100 CALM      30.00R
MEDFORD        PTCLDY    60  58  94 S5        30.01F
WAUSAU         PTCLDY    63  57  81 E3        29.99F
WIS RAPIDS     CLEAR     63  55  75 S3        30.02S
MARSHFIELD     PTCLDY    63  57  81 S3        30.01F
RICE LAKE      PTCLDY    65  58  79 SE6       29.98S
$$

...NORTHEAST IOWA...


CITY           SKY/WX    TMP DP  RH WIND       PRES   REMARKS
WATERLOO       CLEAR     67  59  75 SE9       29.99R
DUBUQUE        CLEAR     59  57  93 S5        30.04R
DECORAH        PTCLDY    63  59  88 CALM      30.02R
MASON CITY     PTCLDY    64  62  93 SE8       29.99R
CHARLES CITY   MOCLDY    64  61  88 E6        30.01R
OELWEIN        CLEAR     63  59  88 SE5       30.02R
$$

...ELSEWHERE IN IOWA...


CITY           SKY/WX    TMP DP  RH WIND       PRES   REMARKS
DES MOINES     PTCLDY    70  59  68 S6        29.95R
IOWA CITY      CLEAR     64  60  87 SE5       30.02R
FORT DODGE     CLEAR     63  59  88 SE5       29.94S
MARSHALLTOWN   CLEAR     65  60  84 SE12      29.96S
CEDAR RAPIDS   CLEAR     64  58  80 SE3       30.01R
$$

...NORTHERN ILLINOIS...


CITY           SKY/WX    TMP DP  RH WIND       PRES   REMARKS
CHICAGO-OHARE  PTCLDY    60  45  57 S6        30.05S
DUPAGE         CLEAR     57  49  74 SE3       30.05S
CHICAGO-MIDWAY PTCLDY    65  51  60 S6        30.06S
MOLINE         CLEAR     62  56  80 SE6       30.02R
ROCKFORD       CLEAR     62  49  62 SE13      30.05F
STERLING       PTCLDY    63  54  72 S5        30.04R
PEORIA         MOCLDY    68  54  60 SE6       30.04S
$$

NOTE: "FAIR" INDICATES FEW OR NO CLOUDS BELOW 12,000 FEET WITH NO
SIGNIFICANT WEATHER AND/OR OBSTRUCTIONS TO VISIBILITY. WIND
SPEEDS ARE IN MILES-PER-HOUR.



USA.gov is the U.S. government's official web portal to all federal, state and local government web resources and services.